Regional Weather Roundup
Issued by NWS Charleston, SC

Current Version | Previous Version | Text Only | Print | Product List | Glossary Off
Versions: 1 2 3 4 5 6 7 8 9 10 11 12 13 14 15 16 17 18 19 20 21 22 23 24 25 26 27 28 29 30 31 32 33 34 35 36 37 38 39 40 41 42 43 44 45 46 47 48 49 50

000
ASUS42 KCHS 301628
RWRCHS

REGIONAL WEATHER ROUNDUP
NATIONAL WEATHER SERVICE CHARLESTON SC
1200 PM EDT FRI SEP 30 2016

NOTE: "FAIR" INDICATES FEW OR NO CLOUDS BELOW 12,000 FEET WITH NO
SIGNIFICANT WEATHER AND/OR OBSTRUCTIONS TO VISIBILITY.

NOT ALL STATIONS ARE QUALITY CONTROLLED. USE DATA WITH CAUTION...
ESPECIALLY DEWPOINT OBSERVATIONS.

SCZ027-030-031-034>040-042>050-301700-
...SOUTHEAST SOUTH CAROLINA...

CITY           SKY/WX    TMP DP  RH WIND       PRES   REMARKS
N CHARLESTON   MOSUNNY   84  67  56 W7        30.01S
WATERFRONT PRK   N/A     81  73  76 CALM      29.99R
MOUNT PLEASANT FAIR      84  70  61 W6        30.01S
JOHNS ISLAND   FAIR      84  70  61 S6        30.01S
PINOPOLIS        N/A     79  72  78 CALM      29.95R
MONCKS CORNER  FAIR      82  64  54 NW6       30.00F
SUMMERVILLE    FAIR      81  68  65 W5        30.02S
BEAUFORT MCAS  MOSUNNY   82  58  43 VRB3      30.03R
BEAUFORT ARPT  FAIR      81  61  50 CALM      30.02S
HILTON HEAD IS SUNNY     86  66  51 W6        30.03S
WALTERBORO     SUNNY     82  55  39 CALM      30.03S
ALLENDALE      FAIR      79  52  38 VRB3      30.02F

...SOUTHERN MIDLANDS AND PEE DEE...

CITY           SKY/WX    TMP DP  RH WIND       PRES   REMARKS
GEORGETOWN     PTSUNNY   86  70  58 SW8       30.01S HX  90
KINGSTREE      FAIR      82  66  57 SW5       30.01S
ORANGEBURG     SUNNY     79  55  43 SW8       30.02S
BARNWELL       NOT AVBL
AIKEN          FAIR      75  50  41 W8        30.06F
MANNING        FAIR      81  61  50 S3        30.01S
COLUMBIA       SUNNY     80  49  33 W5        30.01S
SUMTER         SUNNY     81  53  37 W7        29.99S
FLORENCE       PTSUNNY   81  71  71 VRB6      30.01S
MYRTLE BEACH   MOSUNNY   84  66  54 SW12      30.03R
N MYRTLE BEACH MOSUNNY   83  73  72 S9        30.01R

$$

GAZ063-065-086>088-099>101-113>116-118-119-134>141-150-301700-
...SOUTHEAST GEORGIA...

CITY           SKY/WX    TMP DP  RH WIND       PRES   REMARKS
SAVANNAH ARPT  MOSUNNY   80  55  42 CALM      30.04S
HUNTER AAF     SUNNY     81  67  61 VRB3      30.01S
FORT STEWART   SUNNY     78  56  47 CALM      30.02F
STATESBORO     SUNNY     78  54  42 CALM      30.05S
SYLVANIA       NOT AVBL
CLAXTON        FAIR      78  54  42 SW5       30.05S

...CSRA...CENTRAL AND FAR SOUTHEAST GEORGIA...

CITY           SKY/WX    TMP DP  RH WIND       PRES   REMARKS
THOMSON        SUNNY     79  50  36 CALM      30.07F
AUGUSTA-BUSH   SUNNY     77  49  37 W6        30.03F
AUGUSTA-DANIEL SUNNY     75  47  36 VRB3      30.04F
SWAINSBORO     FAIR      77  46  33 SW6       30.06S
VIDALIA        SUNNY     79  55  44 NW6       30.06S
EASTMAN        FAIR      77  31  18 W6        30.09S
HAZLEHURST     FAIR      79  51  38 E5        30.05F
ALMA           SUNNY     79  54  41 NW6       30.06S
WAYCROSS       SUNNY     84  56  38 CALM      30.05F
JESUP          FAIR      82  61  47 SW3       30.04F
BAXLEY         FAIR      79  57  47 W6        30.05F
BRUNSWICK      SUNNY     82  61  47 W3        30.05S
SAINT SIMONS   SUNNY     81  59  47 VRB3      30.04S

$$

SCZ027-028-034-036>038-045-046-048>050-GAZ119-141-301700-
...LAKE AND SUPPLEMENTAL COASTAL OBSERVATIONS...

STATION/POSITION TIME  TEMP    WIND        PRES    WAVE   SWELL
                       AIR SEA DIR/SP/G            HT/PER HT/PER/DIR
                 (UTC) (F)     (DEG/KT/KT) (MB)    (FT/S) (FT/S/D)
WINYAH BAY       1545   83     180/  4     1015.0S
LAKE MURRAY      1530   73     240/  8/ 10 1015.9S
ACE BASIN NERRS  1545   81     300/  2     1017.0S
FORT PULASKI     1600   77 81  280/  5/  6 1017.3
SAPELO ISLAND    1600   81     300/  2     1017.0

$$

ANZ835-935-AMZ111-154-330-350-352-354-370-450-454-472-301700-
...C-MAN AND BUOY OBSERVATIONS...

STATION/POSITION TIME  TEMP    WIND        PRES    WAVE   SWELL
                       AIR SEA DIR/SP/G            HT/PER HT/PER/DIR
                 (UTC) (F)     (DEG/KT/KT) (MB)    (FT/S) (FT/S/D)
BUOY 41004       1550   82 82  220/  8/ 10 1016.0R   3/ 5   3/190/ 5
BUOY 41008       1550   77 83  290/  6/  8 1016.8R   2/ 5   2/150/ 5
FOLLY BEACH CMAN 1600   80     210/  8/  9 1016.3R
CAPERS NEARSHORE 1608   80 82  220/  6/ 10 1016.1R
FRIPP NEARSHORE  1608   82 81  210/  2/  6 1016.8R


STATION/POSITION TIME  TEMP    WIND        PRES    WAVE   SWELL
                       AIR SEA DIR/SP/G            HT/PER HT/PER/DIR
                 (UTC) (F)     (DEG/KT/KT) (MB)    (FT/S) (FT/S/D)
5E ST. MARYS GA  1601      83                N/A     2/11
FRYING PAN BUOY  1610   82 82  190/ 16/ 19 1016.1
BUOY 41025       1550   81 78  160/  8/ 10 1018.6R   5/10   5/ 30/10
CAPE LOOKOUT NC  1600   72     150/ 20/ 23 1017.7R
BUOY 41002       1550   82 83  180/ 16/ 19 1019.2F   4/10   3/ 10/10
BUOY 41010       NOT AVBL
ST AUGUSTINE FL  1600   79 83  120/  7/  8 1018.0F


$$




USA.gov is the U.S. government's official web portal to all federal, state and local government web resources and services.